Time,TemperatureF,DewpointF,PressureIn,WindDirection,WindDirectionDegrees,WindSpeedMPH,WindSpeedGustMPH,Humidity,HourlyPrecipIn,Conditions,Clouds,dailyrainin,SoftwareType,DateUTC
2013-08-31 00:00:00,72.7,63.5,29.65,ENE,65,1.0,7.0,73,0.00,,BKN018,0.00,VWS V15.00,2013-08-31 05:00:00,
2013-08-31 00:05:00,70.9,63.0,29.66,ENE,70,1.0,3.0,76,0.00,,FEW035,0.00,VWS V14.01,2013-08-31 05:05:00,
2013-08-31 00:10:00,70.9,63.0,29.66,ENE,70,2.0,5.0,76,0.00,,FEW035,0.00,VWS V14.01,2013-08-31 05:10:00,
2013-08-31 00:15:00,70.8,63.2,29.66,ENE,70,0.0,5.0,77,0.00,,FEW035,0.00,VWS V14.01,2013-08-31 05:15:00,
2013-08-31 00:21:00,70.6,63.4,29.66,ENE,70,0.0,5.0,78,0.00,,FEW035,0.00,VWS V14.01,2013-08-31 05:21:00,
2013-08-31 00:30:00,70.3,63.5,29.66,ENE,71,1.0,1.0,79,0.00,,FEW035,0.00,VWS V14.01,2013-08-31 05:30:00,
2013-08-31 00:35:00,70.1,63.3,29.66,ENE,71,2.0,3.0,79,0.00,,FEW035,0.00,VWS V14.01,2013-08-31 05:35:00,
2013-08-31 00:42:00,69.9,63.1,29.66,ENE,71,0.0,3.0,79,0.00,,FEW035,0.00,VWS V14.01,2013-08-31 05:42:00,
2013-08-31 00:49:00,69.9,63.1,29.66,ENE,71,3.0,3.0,79,0.00,,FEW035,0.00,VWS V14.01,2013-08-31 05:49:00,
2013-08-31 00:54:00,69.9,63.5,29.66,ENE,72,2.0,7.0,80,0.00,,FEW035,0.00,VWS V14.01,2013-08-31 05:54:00,
2013-08-31 00:59:00,69.8,63.4,29.66,ENE,67,2.0,7.0,80,0.00,,FEW035,0.00,VWS V14.01,2013-08-31 05:59:00,
2013-08-31 01:00:00,69.8,63.4,29.66,ENE,68,3.0,7.0,80,0.00,,BKN018,0.00,VWS V15.00,2013-08-31 06:00:00,
2013-08-31 01:05:00,69.8,63.7,29.66,ENE,70,1.0,6.0,81,0.00,,FEW035,0.00,VWS V14.01,2013-08-31 06:05:00,
2013-08-31 01:10:00,69.6,63.5,29.66,ENE,75,8.0,8.0,81,0.00,,FEW035,0.00,VWS V14.01,2013-08-31 06:10:00,
2013-08-31 01:15:00,69.6,63.9,29.66,ENE,71,1.0,8.0,82,0.00,,FEW035,0.00,VWS V14.01,2013-08-31 06:15:00,
2013-08-31 01:20:00,69.6,63.5,29.66,ENE,77,2.0,8.0,81,0.00,,FEW035,0.00,VWS V14.01,2013-08-31 06:20:00,
2013-08-31 01:25:00,69.4,63.7,29.66,East,79,2.0,8.0,82,0.00,,FEW035,0.00,VWS V14.01,2013-08-31 06:25:00,
2013-08-31 01:30:00,69.3,63.6,29.67,East,79,1.0,1.0,82,0.00,,FEW035,0.00,VWS V14.01,2013-08-31 06:30:00,
2013-08-31 01:37:00,69.1,63.4,29.67,East,81,0.0,7.0,82,0.00,,FEW035,0.00,VWS V14.01,2013-08-31 06:37:00,
2013-08-31 01:42:00,68.9,63.5,29.67,ENE,75,2.0,7.0,83,0.00,,FEW035,0.00,VWS V14.01,2013-08-31 06:42:00,
2013-08-31 01:48:00,68.8,63.4,29.67,ENE,75,5.0,7.0,83,0.00,,FEW035,0.00,VWS V14.01,2013-08-31 06:48:00,
2013-08-31 01:53:00,68.4,63.4,29.67,ENE,75,4.0,7.0,84,0.00,,FEW035,0.00,VWS V14.01,2013-08-31 06:53:00,
2013-08-31 02:00:00,68.1,63.4,29.66,ENE,77,5.0,7.0,85,0.00,,BKN018,0.00,VWS V15.00,2013-08-31 07:00:00,
2013-08-31 02:01:00,68.1,63.4,29.66,ENE,77,3.0,7.0,85,0.00,,FEW035,0.00,VWS V14.01,2013-08-31 07:01:00,
2013-08-31 02:06:00,67.9,63.6,29.66,East,84,2.0,7.0,86,0.00,,FEW035,0.00,VWS V14.01,2013-08-31 07:06:00,
2013-08-31 02:12:00,67.8,63.5,29.66,East,86,2.0,8.0,86,0.00,,FEW035,0.00,VWS V14.01,2013-08-31 07:12:00,
2013-08-31 02:17:00,67.8,63.5,29.65,East,88,3.0,8.0,86,0.00,,FEW035,0.00,VWS V14.01,2013-08-31 07:17:00,
2013-08-31 02:23:00,67.6,63.3,29.65,East,91,6.0,8.0,86,0.00,,FEW035,0.00,VWS V14.01,2013-08-31 07:23:00,
2013-08-31 02:28:00,67.6,63.3,29.65,East,92,0.0,8.0,86,0.00,,FEW035,0.00,VWS V14.01,2013-08-31 07:28:00,
2013-08-31 02:30:00,67.4,63.1,29.65,East,85,6.0,8.0,86,0.00,,BKN018,0.00,VWS V15.00,2013-08-31 07:30:00,
2013-08-31 02:34:00,67.4,63.1,29.65,East,84,1.0,8.0,86,0.00,,FEW035,0.00,VWS V14.01,2013-08-31 07:34:00,
2013-08-31 02:39:00,67.4,63.1,29.65,East,85,7.0,8.0,86,0.00,,FEW035,0.00,VWS V14.01,2013-08-31 07:39:00,
2013-08-31 02:45:00,67.4,63.1,29.65,East,85,4.0,8.0,86,0.00,,FEW035,0.00,VWS V14.01,2013-08-31 07:45:00,
2013-08-31 02:50:00,67.3,63.3,29.65,East,85,6.0,8.0,87,0.00,,FEW035,0.00,VWS V14.01,2013-08-31 07:50:00,
2013-08-31 02:56:00,67.3,63.3,29.65,East,82,6.0,8.0,87,0.00,,FEW035,0.00,VWS V14.01,2013-08-31 07:56:00,
2013-08-31 03:00:00,67.1,63.1,29.65,East,79,1.0,8.0,87,0.00,,BKN018,0.00,VWS V15.00,2013-08-31 08:00:00,
2013-08-31 03:01:00,67.1,63.1,29.65,East,79,0.0,3.0,87,0.00,,FEW035,0.00,VWS V14.01,2013-08-31 08:01:00,
2013-08-31 03:06:00,67.1,63.1,29.65,ENE,78,1.0,3.0,87,0.00,,FEW035,0.00,VWS V14.01,2013-08-31 08:06:00,
2013-08-31 03:11:00,67.1,63.1,29.65,ENE,78,0.0,3.0,87,0.00,,FEW035,0.00,VWS V14.01,2013-08-31 08:11:00,
2013-08-31 03:17:00,67.1,63.1,29.65,ENE,78,2.0,3.0,87,0.00,,FEW035,0.00,VWS V14.01,2013-08-31 08:17:00,
2013-08-31 03:22:00,67.1,63.1,29.65,ENE,78,2.0,4.0,87,0.00,,FEW035,0.00,VWS V14.01,2013-08-31 08:22:00,
2013-08-31 03:28:00,66.9,63.2,29.65,East,79,3.0,6.0,88,0.00,,FEW035,0.00,VWS V14.01,2013-08-31 08:28:00,
2013-08-31 03:30:00,66.9,63.2,29.65,East,79,2.0,6.0,88,0.00,,BKN018,0.00,VWS V15.00,2013-08-31 08:30:00,
2013-08-31 03:34:00,66.8,63.1,29.65,East,79,2.0,3.0,88,0.00,,FEW035,0.00,VWS V14.01,2013-08-31 08:34:00,
2013-08-31 03:39:00,66.6,62.9,29.65,East,81,2.0,7.0,88,0.00,,FEW035,0.00,VWS V14.01,2013-08-31 08:39:00,
2013-08-31 03:45:00,66.4,63.1,29.64,East,89,1.0,10.0,89,0.00,,FEW035,0.00,VWS V14.01,2013-08-31 08:45:00,
2013-08-31 03:50:00,66.4,63.1,29.64,East,89,1.0,10.0,89,0.00,,FEW035,0.00,VWS V14.01,2013-08-31 08:50:00,
2013-08-31 03:56:00,66.3,63.0,29.64,East,91,1.0,10.0,89,0.00,,FEW035,0.00,VWS V14.01,2013-08-31 08:56:00,
2013-08-31 04:00:00,66.1,62.8,29.64,East,91,0.0,10.0,89,0.00,,BKN018,0.00,VWS V15.00,2013-08-31 09:00:00,
2013-08-31 04:01:00,66.1,62.8,29.64,East,85,6.0,6.0,89,0.00,,FEW035,0.00,VWS V14.01,2013-08-31 09:01:00,
2013-08-31 04:07:00,66.1,63.1,29.64,East,85,0.0,6.0,90,0.00,,FEW035,0.00,VWS V14.01,2013-08-31 09:07:00,
2013-08-31 04:12:00,66.1,63.1,29.64,East,85,0.0,6.0,90,0.00,,FEW035,0.00,VWS V14.01,2013-08-31 09:12:00,
2013-08-31 04:18:00,66.0,63.0,29.64,East,85,0.0,6.0,90,0.00,,FEW035,0.00,VWS V14.01,2013-08-31 09:18:00,
2013-08-31 04:23:00,65.8,62.5,29.64,East,85,0.0,6.0,89,0.00,,FEW035,0.00,VWS V14.01,2013-08-31 09:23:00,
2013-08-31 04:28:00,65.5,62.5,29.64,East,85,0.0,6.0,90,0.00,,FEW035,0.00,VWS V14.01,2013-08-31 09:28:00,
2013-08-31 04:30:00,65.3,62.6,29.65,East,85,0.0,6.0,91,0.00,,BKN018,0.00,VWS V15.00,2013-08-31 09:30:00,
2013-08-31 04:33:00,65.3,62.6,29.65,East,85,0.0,0.0,91,0.00,,FEW035,0.00,VWS V14.01,2013-08-31 09:33:00,
2013-08-31 04:39:00,65.3,62.6,29.65,East,85,0.0,0.0,91,0.00,,FEW035,0.00,VWS V14.01,2013-08-31 09:39:00,
2013-08-31 04:44:00,65.0,62.3,29.65,East,85,0.0,0.0,91,0.00,,FEW035,0.00,VWS V14.01,2013-08-31 09:44:00,
2013-08-31 04:49:00,64.7,62.3,29.65,East,85,0.0,0.0,92,0.00,,FEW035,0.00,VWS V14.01,2013-08-31 09:49:00,
2013-08-31 04:54:00,64.5,62.1,29.65,East,85,0.0,0.0,92,0.00,,FEW035,0.00,VWS V14.01,2013-08-31 09:54:00,
2013-08-31 05:00:00,64.5,62.4,29.65,East,85,0.0,0.0,93,0.00,,FEW035,0.00,VWS V14.01,2013-08-31 10:00:00,
2013-08-31 05:05:00,64.7,62.6,29.65,East,85,0.0,0.0,93,0.00,,FEW035,0.00,VWS V14.01,2013-08-31 10:05:00,
2013-08-31 05:10:00,64.5,62.4,29.65,East,85,0.0,0.0,93,0.00,,FEW035,0.00,VWS V14.01,2013-08-31 10:10:00,
2013-08-31 05:15:00,64.7,62.6,29.65,East,85,0.0,1.0,93,0.00,,FEW035,0.00,VWS V14.01,2013-08-31 10:15:00,
2013-08-31 05:20:00,64.7,62.6,29.65,East,85,0.0,1.0,93,0.00,,FEW035,0.00,VWS V14.01,2013-08-31 10:20:00,
2013-08-31 05:25:00,64.7,62.6,29.65,East,85,1.0,1.0,93,0.00,,FEW035,0.00,VWS V14.01,2013-08-31 10:25:00,
2013-08-31 05:30:00,64.7,62.6,29.65,East,85,1.0,1.0,93,0.00,,FEW035,0.00,VWS V14.01,2013-08-31 10:30:00,
2013-08-31 05:35:00,64.7,62.6,29.65,East,85,0.0,2.0,93,0.00,,FEW035,0.00,VWS V14.01,2013-08-31 10:35:00,
2013-08-31 05:41:00,64.7,62.6,29.65,East,85,1.0,3.0,93,0.00,,FEW035,0.00,VWS V14.01,2013-08-31 10:41:00,
2013-08-31 05:46:00,64.5,62.4,29.65,East,85,1.0,3.0,93,0.00,,FEW035,0.00,VWS V14.01,2013-08-31 10:46:00,
2013-08-31 05:52:00,64.5,62.4,29.65,East,85,3.0,3.0,93,0.00,,FEW035,0.00,VWS V14.01,2013-08-31 10:52:00,
2013-08-31 05:57:00,64.3,62.5,29.65,East,85,2.0,3.0,94,0.00,,FEW035,0.00,VWS V14.01,2013-08-31 10:57:00,
2013-08-31 06:00:00,64.3,62.5,29.65,East,85,0.0,3.0,94,0.00,,BKN018,0.00,VWS V15.00,2013-08-31 11:00:00,
2013-08-31 06:03:00,64.3,62.5,29.65,East,85,0.0,2.0,94,0.00,,FEW035,0.00,VWS V14.01,2013-08-31 11:03:00,
2013-08-31 06:08:00,64.2,62.4,29.65,East,85,1.0,2.0,94,0.00,,FEW035,0.00,VWS V14.01,2013-08-31 11:08:00,
2013-08-31 06:13:00,64.2,62.4,29.65,East,85,0.0,2.0,94,0.00,,FEW035,0.00,VWS V14.01,2013-08-31 11:13:00,
2013-08-31 06:19:00,64.2,62.4,29.64,East,85,0.0,2.0,94,0.00,,FEW035,0.00,VWS V14.01,2013-08-31 11:19:00,
2013-08-31 06:24:00,64.2,62.4,29.64,East,85,0.0,2.0,94,0.00,,FEW035,0.00,VWS V14.01,2013-08-31 11:24:00,
2013-08-31 06:29:00,64.2,62.4,29.65,East,85,0.0,2.0,94,0.00,,FEW035,0.00,VWS V14.01,2013-08-31 11:29:00,
2013-08-31 06:30:00,64.2,62.4,29.65,East,85,0.0,2.0,94,0.00,,BKN018,0.00,VWS V15.00,2013-08-31 11:30:00,
2013-08-31 06:34:00,64.2,62.4,29.65,East,85,0.0,0.0,94,0.00,,FEW035,0.00,VWS V14.01,2013-08-31 11:34:00,
2013-08-31 06:39:00,64.2,62.4,29.65,East,85,0.0,0.0,94,0.00,,FEW035,0.00,VWS V14.01,2013-08-31 11:39:00,
2013-08-31 06:45:00,64.0,62.8,29.65,East,85,0.0,0.0,96,0.00,,FEW035,0.00,VWS V14.01,2013-08-31 11:45:00,
2013-08-31 06:51:00,64.0,62.8,29.65,East,85,0.0,0.0,96,0.00,,FEW035,0.00,VWS V14.01,2013-08-31 11:51:00,
2013-08-31 06:56:00,64.0,62.2,29.65,East,85,0.0,0.0,94,0.00,,FEW035,0.00,VWS V14.01,2013-08-31 11:56:00,
2013-08-31 07:00:00,64.0,62.2,29.64,East,85,1.0,2.0,94,0.00,,BKN018,0.00,VWS V15.00,2013-08-31 12:00:00,
2013-08-31 07:01:00,63.9,62.1,29.64,East,85,1.0,2.0,94,0.00,,FEW035,0.00,VWS V14.01,2013-08-31 12:01:00,
2013-08-31 07:07:00,63.9,62.4,29.64,East,85,1.0,2.0,95,0.00,,FEW035,0.00,VWS V14.01,2013-08-31 12:07:00,
2013-08-31 07:12:00,63.9,62.4,29.64,East,85,0.0,2.0,95,0.00,,FEW035,0.00,VWS V14.01,2013-08-31 12:12:00,
2013-08-31 07:17:00,64.0,62.5,29.65,East,85,1.0,2.0,95,0.00,,FEW035,0.00,VWS V14.01,2013-08-31 12:17:00,
2013-08-31 07:22:00,64.0,62.5,29.65,East,85,0.0,2.0,95,0.00,,FEW035,0.00,VWS V14.01,2013-08-31 12:22:00,
2013-08-31 07:27:00,64.3,62.8,29.65,East,85,1.0,3.0,95,0.00,,FEW035,0.00,VWS V14.01,2013-08-31 12:27:00,
2013-08-31 07:30:00,64.5,63.0,29.65,East,85,2.0,3.0,95,0.00,,BKN018,0.00,VWS V15.00,2013-08-31 12:30:00,
2013-08-31 07:32:00,64.5,63.0,29.65,East,85,2.0,3.0,95,0.00,,FEW035,0.00,VWS V14.01,2013-08-31 12:32:00,
2013-08-31 07:37:00,64.7,63.2,29.65,East,85,2.0,3.0,95,0.00,,FEW035,0.00,VWS V14.01,2013-08-31 12:37:00,
2013-08-31 07:43:00,64.8,63.0,29.65,East,85,2.0,3.0,94,0.00,,FEW035,0.00,VWS V14.01,2013-08-31 12:43:00,
2013-08-31 07:49:00,65.0,63.2,29.64,East,85,1.0,4.0,94,0.00,,FEW035,0.00,VWS V14.01,2013-08-31 12:49:00,
2013-08-31 07:54:00,65.3,63.5,29.64,East,85,2.0,4.0,94,0.00,,FEW035,0.00,VWS V14.01,2013-08-31 12:54:00,
2013-08-31 07:59:00,65.6,63.5,29.65,East,85,1.0,4.0,93,0.00,,FEW035,0.00,VWS V14.01,2013-08-31 12:59:00,
2013-08-31 08:00:00,65.6,63.5,29.65,East,85,1.0,4.0,93,0.00,,BKN018,0.00,VWS V15.00,2013-08-31 13:00:00,
2013-08-31 08:04:00,65.8,63.7,29.65,East,85,0.0,3.0,93,0.00,,FEW035,0.00,VWS V14.01,2013-08-31 13:04:00,
2013-08-31 08:10:00,66.0,64.2,29.65,East,85,0.0,3.0,94,0.00,,FEW035,0.00,VWS V14.01,2013-08-31 13:10:00,
2013-08-31 08:15:00,66.3,64.2,29.65,East,85,2.0,3.0,93,0.00,,FEW035,0.00,VWS V14.01,2013-08-31 13:15:00,
2013-08-31 08:20:00,66.8,64.4,29.65,East,85,1.0,3.0,92,0.00,,FEW035,0.00,VWS V14.01,2013-08-31 13:20:00,
2013-08-31 08:25:00,67.3,64.6,29.65,East,85,3.0,4.0,91,0.00,,FEW035,0.00,VWS V14.01,2013-08-31 13:25:00,
2013-08-31 08:30:00,64.5,63.0,29.65,East,85,2.0,3.0,95,0.00,,BKN018,0.00,VWS V15.00,2013-08-31 13:30:00,
2013-08-31 08:31:00,67.8,64.4,29.65,East,86,6.0,6.0,89,0.00,,FEW035,0.00,VWS V14.01,2013-08-31 13:31:00,
2013-08-31 08:36:00,67.9,64.2,29.65,East,91,5.0,8.0,88,0.00,,FEW035,0.00,VWS V14.01,2013-08-31 13:36:00,
2013-08-31 08:42:00,68.3,64.3,29.65,East,92,2.0,11.0,87,0.00,,FEW035,0.00,VWS V14.01,2013-08-31 13:42:00,
2013-08-31 08:48:00,68.6,64.6,29.64,East,94,6.0,11.0,87,0.00,,FEW035,0.00,VWS V14.01,2013-08-31 13:48:00,
2013-08-31 08:54:00,68.9,64.9,29.64,East,94,2.0,11.0,87,0.00,,FEW035,0.00,VWS V14.01,2013-08-31 13:54:00,
2013-08-31 08:59:00,69.4,65.0,29.63,East,94,3.0,11.0,86,0.00,,FEW035,0.00,VWS V14.01,2013-08-31 13:59:00,
2013-08-31 09:00:00,69.6,65.2,29.63,East,94,2.0,11.0,86,0.00,,BKN018,0.00,VWS V15.00,2013-08-31 14:00:00,
2013-08-31 09:05:00,69.8,65.1,29.63,ESE,115,3.0,8.0,85,0.00,,FEW035,0.00,VWS V14.01,2013-08-31 14:05:00,
2013-08-31 09:10:00,70.3,65.2,29.63,ESE,118,8.0,8.0,84,0.00,,FEW035,0.00,VWS V14.01,2013-08-31 14:10:00,
2013-08-31 09:16:00,70.6,65.9,29.63,ESE,122,2.0,9.0,85,0.00,,FEW035,0.00,VWS V14.01,2013-08-31 14:16:00,
2013-08-31 09:22:00,71.5,66.4,29.63,SE,130,3.0,9.0,84,0.00,,FEW035,0.00,VWS V14.01,2013-08-31 14:22:00,
2013-08-31 09:27:00,72.1,66.3,29.63,SE,129,7.0,9.0,82,0.00,,FEW035,0.00,VWS V14.01,2013-08-31 14:27:00,
2013-08-31 09:30:00,72.3,66.5,29.63,SE,129,5.0,9.0,82,0.00,,BKN018,0.00,VWS V15.00,2013-08-31 14:30:00,
2013-08-31 09:32:00,72.5,66.7,29.63,SE,129,3.0,7.0,82,0.00,,FEW035,0.00,VWS V14.01,2013-08-31 14:32:00,
2013-08-31 09:37:00,72.7,66.2,29.63,SE,127,6.0,8.0,80,0.00,,FEW035,0.00,VWS V14.01,2013-08-31 14:37:00,
2013-08-31 09:43:00,73.3,66.8,29.63,ESE,119,4.0,8.0,80,0.00,,FEW035,0.00,VWS V14.01,2013-08-31 14:43:00,
2013-08-31 09:48:00,73.9,67.3,29.62,ESE,116,7.0,8.0,80,0.00,,FEW035,0.00,VWS V14.01,2013-08-31 14:48:00,
2013-08-31 09:53:00,74.0,66.7,29.62,ESE,112,5.0,8.0,78,0.00,,FEW035,0.00,VWS V14.01,2013-08-31 14:53:00,
2013-08-31 09:58:00,74.6,66.9,29.62,ESE,112,8.0,10.0,77,0.00,,FEW035,0.00,VWS V14.01,2013-08-31 14:58:00,
2013-08-31 10:00:00,74.6,66.9,29.61,ESE,112,5.0,10.0,77,0.00,,BKN018,0.00,VWS V15.00,2013-08-31 15:00:00,
2013-08-31 10:04:00,74.9,67.9,29.61,ESE,105,3.0,11.0,79,0.00,,FEW035,0.00,VWS V14.01,2013-08-31 15:04:00,
2013-08-31 10:09:00,75.1,67.4,29.61,ESE,118,0.0,11.0,77,0.00,,FEW035,0.00,VWS V14.01,2013-08-31 15:09:00,
2013-08-31 10:14:00,75.4,66.9,29.62,ESE,118,0.0,11.0,75,0.00,,FEW035,0.00,VWS V14.01,2013-08-31 15:14:00,
2013-08-31 10:20:00,75.8,67.7,29.62,ESE,122,2.0,11.0,76,0.00,,FEW035,0.00,VWS V14.01,2013-08-31 15:20:00,
2013-08-31 10:25:00,76.3,67.0,29.62,ESE,122,1.0,11.0,73,0.00,,FEW035,0.00,VWS V14.01,2013-08-31 15:25:00,
2013-08-31 10:30:00,76.7,67.4,29.61,ESE,122,2.0,2.0,73,0.00,,FEW035,0.00,VWS V14.01,2013-08-31 15:30:00,
2013-08-31 10:35:00,76.8,67.9,29.61,ESE,118,1.0,9.0,74,0.00,,FEW035,0.00,VWS V14.01,2013-08-31 15:35:00,
2013-08-31 10:40:00,77.6,67.9,29.61,SE,125,3.0,9.0,72,0.00,,FEW035,0.00,VWS V14.01,2013-08-31 15:40:00,
2013-08-31 10:45:00,77.7,67.6,29.61,ESE,122,2.0,9.0,71,0.00,,FEW035,0.00,VWS V14.01,2013-08-31 15:45:00,
2013-08-31 10:51:00,77.9,67.3,29.61,ESE,122,1.0,9.0,70,0.00,,FEW035,0.00,VWS V14.01,2013-08-31 15:51:00,
2013-08-31 10:58:00,78.5,67.5,29.61,SE,129,1.0,9.0,69,0.00,,FEW035,0.00,VWS V14.01,2013-08-31 15:58:00,
2013-08-31 11:00:00,79.0,68.0,29.61,ESE,123,8.0,9.0,69,0.00,,BKN018,0.00,VWS V15.00,2013-08-31 16:00:00,
2013-08-31 11:03:00,79.0,67.1,29.61,ESE,122,1.0,9.0,67,0.00,,FEW035,0.00,VWS V14.01,2013-08-31 16:03:00,
2013-08-31 11:08:00,79.6,66.8,29.61,ESE,122,3.0,9.0,65,0.00,,FEW035,0.00,VWS V14.01,2013-08-31 16:08:00,
2013-08-31 11:13:00,79.6,67.2,29.61,ESE,120,1.0,9.0,66,0.00,,FEW035,0.00,VWS V14.01,2013-08-31 16:13:00,
2013-08-31 11:18:00,79.8,67.0,29.62,ESE,120,2.0,9.0,65,0.00,,FEW035,0.00,VWS V14.01,2013-08-31 16:18:00,
2013-08-31 11:24:00,80.1,67.3,29.62,ESE,120,1.0,9.0,65,0.00,,FEW035,0.00,VWS V14.01,2013-08-31 16:24:00,
2013-08-31 11:30:00,80.3,67.5,29.61,ESE,113,3.0,9.0,65,0.00,,FEW035,0.00,VWS V14.01,2013-08-31 16:30:00,
2013-08-31 11:36:00,80.7,68.3,29.61,ESE,113,0.0,2.0,66,0.00,,FEW035,0.00,VWS V14.01,2013-08-31 16:36:00,
2013-08-31 11:42:00,81.6,67.8,29.61,ESE,113,3.0,3.0,63,0.00,,FEW035,0.00,VWS V14.01,2013-08-31 16:42:00,
2013-08-31 11:47:00,81.8,67.5,29.61,ESE,108,4.0,8.0,62,0.00,,FEW035,0.00,VWS V14.01,2013-08-31 16:47:00,
2013-08-31 11:58:00,82.4,67.6,29.61,ESE,108,0.0,8.0,61,0.00,,FEW035,0.00,VWS V14.01,2013-08-31 16:58:00,
2013-08-31 12:00:00,82.4,67.6,29.61,ESE,108,0.0,8.0,61,0.00,,BKN018,0.00,VWS V15.00,2013-08-31 17:00:00,
2013-08-31 12:04:00,82.4,68.1,29.61,ESE,108,1.0,2.0,62,0.00,,FEW035,0.00,VWS V14.01,2013-08-31 17:04:00,
2013-08-31 12:10:00,81.2,67.4,29.61,NW,314,2.0,5.0,63,0.00,,FEW035,0.00,VWS V14.01,2013-08-31 17:10:00,
2013-08-31 12:15:00,80.9,67.1,29.62,NW,321,2.0,5.0,63,0.00,,FEW035,0.00,VWS V14.01,2013-08-31 17:15:00,
2013-08-31 12:20:00,81.1,66.4,29.62,NNW,342,0.0,7.0,61,0.00,,FEW035,0.00,VWS V14.01,2013-08-31 17:20:00,
2013-08-31 12:26:00,81.8,66.1,29.62,NNW,343,0.0,7.0,59,0.00,,FEW035,0.00,VWS V14.01,2013-08-31 17:26:00,
2013-08-31 12:30:00,82.0,66.3,29.61,NNW,339,2.0,7.0,59,0.00,,BKN018,0.00,VWS V15.00,2013-08-31 17:30:00,
2013-08-31 12:32:00,82.2,66.9,29.61,NNW,341,1.0,3.0,60,0.00,,FEW035,0.00,VWS V14.01,2013-08-31 17:32:00,
2013-08-31 12:37:00,82.4,66.7,29.61,NNW,335,1.0,6.0,59,0.00,,FEW035,0.00,VWS V14.01,2013-08-31 17:37:00,
2013-08-31 12:42:00,82.2,66.9,29.61,NNW,335,1.0,6.0,60,0.00,,FEW035,0.00,VWS V14.01,2013-08-31 17:42:00,
2013-08-31 12:47:00,82.6,66.8,29.61,NNW,341,2.0,6.0,59,0.00,,FEW035,0.00,VWS V14.01,2013-08-31 17:47:00,
2013-08-31 12:52:00,83.6,66.8,29.61,North,356,5.0,6.0,57,0.00,,FEW035,0.00,VWS V14.01,2013-08-31 17:52:00,
2013-08-31 12:59:00,83.4,67.6,29.61,North,356,1.0,6.0,59,0.00,,FEW035,0.00,VWS V14.01,2013-08-31 17:59:00,
2013-08-31 13:00:00,83.4,67.1,29.61,North,356,0.0,6.0,58,0.00,,BKN018,0.00,VWS V15.00,2013-08-31 18:00:00,
2013-08-31 13:04:00,83.6,67.8,29.61,North,359,0.0,3.0,59,0.00,,FEW035,0.00,VWS V14.01,2013-08-31 18:04:00,
2013-08-31 13:09:00,84.3,66.4,29.61,ESE,113,1.0,7.0,55,0.00,,FEW035,0.00,VWS V14.01,2013-08-31 18:09:00,
2013-08-31 13:14:00,85.1,66.1,29.61,ESE,113,2.0,7.0,53,0.00,,FEW035,0.00,VWS V14.01,2013-08-31 18:14:00,
2013-08-31 13:19:00,85.7,67.2,29.60,ESE,113,0.0,7.0,54,0.00,,FEW035,0.00,VWS V14.01,2013-08-31 18:19:00,
2013-08-31 13:24:00,85.3,67.3,29.60,ESE,113,0.0,7.0,55,0.00,,FEW035,0.00,VWS V14.01,2013-08-31 18:24:00,
2013-08-31 13:30:00,85.7,67.2,29.60,ESE,112,6.0,7.0,54,0.00,,BKN018,0.00,VWS V15.00,2013-08-31 18:30:00,
2013-08-31 13:32:00,85.5,67.0,29.60,ESE,112,0.0,8.0,54,0.00,,FEW035,0.00,VWS V14.01,2013-08-31 18:32:00,
2013-08-31 13:37:00,85.7,67.2,29.60,East,82,0.0,8.0,54,0.00,,FEW035,0.00,VWS V14.01,2013-08-31 18:37:00,
2013-08-31 13:43:00,85.9,68.4,29.60,SSW,204,5.0,8.0,56,0.00,,FEW035,0.00,VWS V14.01,2013-08-31 18:43:00,
2013-08-31 13:48:00,85.7,67.2,29.59,SE,130,5.0,8.0,54,0.00,,FEW035,0.00,VWS V14.01,2013-08-31 18:48:00,
2013-08-31 13:53:00,86.1,67.0,29.59,SE,130,0.0,8.0,53,0.00,,FEW035,0.00,VWS V14.01,2013-08-31 18:53:00,
2013-08-31 14:00:00,85.7,68.7,29.59,WSW,253,0.0,8.0,57,0.00,,BKN018,0.00,VWS V15.00,2013-08-31 19:00:00,
2013-08-31 14:01:00,85.7,67.7,29.59,WSW,253,0.0,0.0,55,0.00,,FEW035,0.00,VWS V14.01,2013-08-31 19:01:00,
2013-08-31 14:06:00,85.7,67.2,29.59,WSW,257,0.0,2.0,54,0.00,,FEW035,0.00,VWS V14.01,2013-08-31 19:06:00,
2013-08-31 14:12:00,86.1,67.0,29.59,WSW,256,0.0,2.0,53,0.00,,FEW035,0.00,VWS V14.01,2013-08-31 19:12:00,
2013-08-31 14:20:00,86.5,66.2,29.59,SW,225,2.0,4.0,51,0.00,,FEW035,0.00,VWS V14.01,2013-08-31 19:20:00,
2013-08-31 14:25:00,85.9,66.2,29.59,SE,133,5.0,5.0,52,0.00,,FEW035,0.00,VWS V14.01,2013-08-31 19:25:00,
2013-08-31 14:30:00,86.1,67.5,29.59,SE,137,0.0,5.0,54,0.00,,BKN018,0.00,VWS V15.00,2013-08-31 19:30:00,
2013-08-31 14:31:00,86.1,67.5,29.59,SE,137,2.0,2.0,54,0.00,,FEW035,0.00,VWS V14.01,2013-08-31 19:31:00,
2013-08-31 14:40:00,87.6,68.4,29.59,SE,143,1.0,5.0,53,0.00,,FEW035,0.00,VWS V14.01,2013-08-31 19:40:00,
2013-08-31 14:46:00,87.0,67.8,29.58,SSE,149,0.0,5.0,53,0.00,,FEW035,0.00,VWS V14.01,2013-08-31 19:46:00,
2013-08-31 14:56:00,87.4,67.1,29.58,ESE,113,3.0,6.0,51,0.00,,FEW035,0.00,VWS V14.01,2013-08-31 19:56:00,
2013-08-31 15:00:00,87.8,66.9,29.57,ESE,113,0.0,6.0,50,0.00,,BKN018,0.00,VWS V15.00,2013-08-31 20:00:00,
2013-08-31 15:01:00,87.8,68.0,29.57,ESE,113,0.0,0.0,52,0.00,,FEW035,0.00,VWS V14.01,2013-08-31 20:01:00,
2013-08-31 15:07:00,87.4,67.1,29.57,ESE,113,0.0,6.0,51,0.00,,FEW035,0.00,VWS V14.01,2013-08-31 20:07:00,
2013-08-31 15:15:00,88.0,68.7,29.57,ESE,110,1.0,9.0,53,0.00,,FEW035,0.00,VWS V14.01,2013-08-31 20:15:00,
2013-08-31 15:21:00,88.0,67.1,29.57,East,85,0.0,9.0,50,0.00,,FEW035,0.00,VWS V14.01,2013-08-31 20:21:00,
2013-08-31 15:26:00,87.8,68.0,29.57,WSW,246,1.0,9.0,52,0.00,,FEW035,0.00,VWS V14.01,2013-08-31 20:26:00,
2013-08-31 15:30:00,88.0,68.2,29.57,SSE,150,5.0,9.0,52,0.00,,BKN018,0.00,VWS V15.00,2013-08-31 20:30:00,
2013-08-31 15:31:00,88.0,67.6,29.57,ESE,123,5.0,5.0,51,0.00,,CLR,0.00,VWS V14.01,2013-08-31 20:31:00,
2013-08-31 15:36:00,88.2,67.8,29.57,SSE,158,5.0,11.0,51,0.00,,CLR,0.00,VWS V14.01,2013-08-31 20:36:00,
2013-08-31 15:41:00,88.0,67.1,29.57,SE,127,6.0,11.0,50,0.00,,CLR,0.00,VWS V14.01,2013-08-31 20:41:00,
2013-08-31 15:46:00,87.2,66.9,29.57,ESE,116,0.0,11.0,51,0.00,,CLR,0.00,VWS V14.01,2013-08-31 20:46:00,
2013-08-31 15:51:00,87.8,66.9,29.57,ESE,120,2.0,11.0,50,0.00,,CLR,0.00,VWS V14.01,2013-08-31 20:51:00,
2013-08-31 15:56:00,87.4,67.1,29.57,SE,126,1.0,12.0,51,0.00,,CLR,0.00,VWS V14.01,2013-08-31 20:56:00,
2013-08-31 16:00:00,88.0,66.5,29.56,SE,129,2.0,12.0,49,0.00,,BKN018,0.00,VWS V15.00,2013-08-31 21:00:00,
2013-08-31 16:01:00,88.2,67.2,29.56,SE,125,5.0,6.0,50,0.00,,FEW050,0.00,VWS V14.01,2013-08-31 21:01:00,
2013-08-31 16:06:00,88.0,67.1,29.56,ESE,123,6.0,8.0,50,0.00,,FEW050,0.00,VWS V14.01,2013-08-31 21:06:00,
2013-08-31 16:11:00,88.4,67.4,29.56,SE,139,6.0,8.0,50,0.00,,FEW050,0.00,VWS V14.01,2013-08-31 21:11:00,
2013-08-31 16:16:00,87.8,66.3,29.56,SE,144,1.0,8.0,49,0.00,,FEW050,0.00,VWS V14.01,2013-08-31 21:16:00,
2013-08-31 16:21:00,87.8,66.9,29.56,SE,136,0.0,8.0,50,0.00,,FEW050,0.00,VWS V14.01,2013-08-31 21:21:00,
2013-08-31 16:26:00,88.4,68.0,29.56,SW,221,1.0,8.0,51,0.00,,FEW050,0.00,VWS V14.01,2013-08-31 21:26:00,
2013-08-31 16:30:00,88.8,68.9,29.55,ESE,120,3.0,8.0,52,0.00,,BKN018,0.00,VWS V15.00,2013-08-31 21:30:00,
2013-08-31 16:31:00,88.8,68.4,29.55,SE,126,0.0,3.0,51,0.00,,FEW050,0.00,VWS V14.01,2013-08-31 21:31:00,
2013-08-31 16:36:00,88.8,67.8,29.55,SW,226,2.0,8.0,50,0.00,,FEW050,0.00,VWS V14.01,2013-08-31 21:36:00,
2013-08-31 16:41:00,88.8,68.4,29.55,South,178,6.0,8.0,51,0.00,,FEW050,0.00,VWS V14.01,2013-08-31 21:41:00,
2013-08-31 16:46:00,88.8,67.8,29.54,ESE,109,5.0,8.0,50,0.00,,FEW050,0.00,VWS V14.01,2013-08-31 21:46:00,
2013-08-31 16:51:00,89.3,68.8,29.54,ESE,109,0.0,8.0,51,0.00,,FEW050,0.00,VWS V14.01,2013-08-31 21:51:00,
2013-08-31 16:56:00,88.4,68.0,29.54,SSE,153,0.0,10.0,51,0.00,,FEW050,0.00,VWS V14.01,2013-08-31 21:56:00,
2013-08-31 17:00:00,87.8,67.4,29.53,SE,133,4.0,13.0,51,0.00,,BKN018,0.00,VWS V15.00,2013-08-31 22:00:00,
2013-08-31 17:01:00,87.6,67.2,29.53,ESE,122,8.0,10.0,51,0.00,,FEW300,0.00,VWS V14.01,2013-08-31 22:01:00,
2013-08-31 17:06:00,87.2,68.0,29.53,SE,127,0.0,10.0,53,0.00,,FEW300,0.00,VWS V14.01,2013-08-31 22:06:00,
2013-08-31 17:11:00,87.6,67.8,29.53,ESE,112,1.0,10.0,52,0.00,,FEW300,0.00,VWS V14.01,2013-08-31 22:11:00,
2013-08-31 17:16:00,88.0,68.2,29.52,ESE,123,2.0,10.0,52,0.00,,FEW300,0.00,VWS V14.01,2013-08-31 22:16:00,
2013-08-31 17:21:00,88.0,68.2,29.52,ESE,105,2.0,10.0,52,0.00,,FEW300,0.00,VWS V14.01,2013-08-31 22:21:00,
2013-08-31 17:26:00,87.6,67.8,29.52,SSE,168,0.0,10.0,52,0.00,,FEW300,0.00,VWS V14.01,2013-08-31 22:26:00,
2013-08-31 17:30:00,87.8,68.6,29.52,ESE,109,3.0,10.0,53,0.00,,BKN018,0.00,VWS V15.00,2013-08-31 22:30:00,
2013-08-31 17:31:00,87.8,68.6,29.52,ESE,112,3.0,3.0,53,0.00,,FEW300,0.00,VWS V14.01,2013-08-31 22:31:00,
2013-08-31 17:36:00,87.2,68.5,29.52,SE,134,0.0,6.0,54,0.00,,FEW300,0.00,VWS V14.01,2013-08-31 22:36:00,
2013-08-31 17:41:00,86.5,68.4,29.52,West,263,1.0,7.0,55,0.00,,FEW300,0.00,VWS V14.01,2013-08-31 22:41:00,
2013-08-31 17:46:00,85.9,68.9,29.53,ESE,120,0.0,7.0,57,0.00,,FEW300,0.00,VWS V14.01,2013-08-31 22:46:00,
2013-08-31 17:51:00,85.3,68.3,29.53,SW,226,0.0,7.0,57,0.00,,FEW300,0.00,VWS V14.01,2013-08-31 22:51:00,
2013-08-31 17:56:00,84.7,68.8,29.53,SSW,212,0.0,7.0,59,0.00,,FEW300,0.00,VWS V14.01,2013-08-31 22:56:00,
2013-08-31 18:00:00,84.5,68.1,29.55,SSE,157,0.0,7.0,58,0.00,,BKN018,0.00,VWS V15.00,2013-08-31 23:00:00,
2013-08-31 18:01:00,84.5,68.1,29.55,SSE,166,0.0,1.0,58,0.00,,SCT300,0.00,VWS V14.01,2013-08-31 23:01:00,
2013-08-31 18:06:00,84.5,68.6,29.55,SSE,166,0.0,1.0,59,0.00,,SCT300,0.00,VWS V14.01,2013-08-31 23:06:00,
2013-08-31 18:11:00,84.3,68.9,29.55,SSE,166,0.0,2.0,60,0.00,,SCT300,0.00,VWS V14.01,2013-08-31 23:11:00,
2013-08-31 18:16:00,84.0,68.6,29.54,SSE,166,0.0,2.0,60,0.00,,SCT300,0.00,VWS V14.01,2013-08-31 23:16:00,
2013-08-31 18:21:00,83.6,68.7,29.54,SSE,166,0.0,2.0,61,0.00,,SCT300,0.00,VWS V14.01,2013-08-31 23:21:00,
2013-08-31 18:26:00,83.2,68.8,29.54,SSE,166,0.0,2.0,62,0.00,,SCT300,0.00,VWS V14.01,2013-08-31 23:26:00,
2013-08-31 18:30:00,83.0,69.1,29.55,SSE,166,0.0,2.0,63,0.00,,BKN018,0.00,VWS V15.00,2013-08-31 23:30:00,
2013-08-31 18:31:00,83.0,69.1,29.55,SSE,166,0.0,0.0,63,0.00,,SCT300,0.00,VWS V14.01,2013-08-31 23:31:00,
2013-08-31 18:36:00,82.6,70.5,29.55,SSE,166,0.0,0.0,67,0.00,,SCT300,0.00,VWS V14.01,2013-08-31 23:36:00,
2013-08-31 18:41:00,82.2,69.7,29.55,SSE,166,0.0,0.0,66,0.00,,SCT300,0.00,VWS V14.01,2013-08-31 23:41:00,
2013-08-31 18:46:00,81.6,70.9,29.56,SSE,166,0.0,0.0,70,0.00,,SCT300,0.00,VWS V14.01,2013-08-31 23:46:00,
2013-08-31 18:51:00,80.7,70.0,29.56,SSE,166,0.0,0.0,70,0.00,,SCT300,0.00,VWS V14.01,2013-08-31 23:51:00,
2013-08-31 18:56:00,80.3,70.1,29.56,SSE,166,0.0,0.0,71,0.00,,SCT300,0.00,VWS V14.01,2013-08-31 23:56:00,
2013-08-31 19:00:00,79.9,70.1,29.58,SSE,166,0.0,0.0,72,0.00,,BKN018,0.00,VWS V15.00,2013-09-01 00:00:00,
2013-08-31 19:01:00,79.8,70.0,29.58,SSE,166,0.0,0.0,72,0.00,,BKN300,0.00,VWS V14.01,2013-09-01 00:01:00,
2013-08-31 19:06:00,79.4,70.4,29.58,SSE,166,0.0,0.0,74,0.00,,BKN300,0.00,VWS V14.01,2013-09-01 00:06:00,
2013-08-31 19:11:00,78.8,70.6,29.58,SSE,166,0.0,0.0,76,0.00,,BKN300,0.00,VWS V14.01,2013-09-01 00:11:00,
2013-08-31 19:16:00,78.6,70.4,29.58,SSE,166,0.0,0.0,76,0.00,,BKN300,0.00,VWS V14.01,2013-09-01 00:16:00,
2013-08-31 19:21:00,78.5,70.7,29.58,SSE,166,0.0,0.0,77,0.00,,BKN300,0.00,VWS V14.01,2013-09-01 00:21:00,
2013-08-31 19:26:00,78.1,71.1,29.58,SSE,166,0.0,0.0,79,0.00,,BKN300,0.00,VWS V14.01,2013-09-01 00:26:00,
2013-08-31 19:30:00,77.4,70.8,29.60,SSE,166,1.0,1.0,80,0.00,,BKN018,0.00,VWS V15.00,2013-09-01 00:30:00,
2013-08-31 19:31:00,77.4,71.1,29.60,SSE,166,1.0,2.0,81,0.00,,BKN300,0.00,VWS V14.01,2013-09-01 00:31:00,
2013-08-31 19:36:00,77.2,70.2,29.60,SSE,166,2.0,3.0,79,0.00,,BKN300,0.00,VWS V14.01,2013-09-01 00:36:00,
2013-08-31 19:41:00,77.7,69.2,29.60,NNE,14,1.0,5.0,75,0.00,,BKN300,0.00,VWS V14.01,2013-09-01 00:41:00,
2013-08-31 19:46:00,78.1,69.1,29.62,North,356,2.0,5.0,74,0.00,,BKN300,0.00,VWS V14.01,2013-09-01 00:46:00,
2013-08-31 19:51:00,78.5,69.1,29.62,North,356,0.0,5.0,73,0.00,,BKN300,0.00,VWS V14.01,2013-09-01 00:51:00,
2013-08-31 19:56:00,78.6,68.8,29.62,North,356,2.0,5.0,72,0.00,,BKN300,0.00,VWS V14.01,2013-09-01 00:56:00,
2013-08-31 20:00:00,78.8,69.0,29.62,North,356,1.0,5.0,72,0.00,,BKN018,0.00,VWS V15.00,2013-09-01 01:00:00,
2013-08-31 20:01:00,78.8,69.0,29.62,North,356,0.0,1.0,72,0.00,,OVC160,0.00,VWS V14.01,2013-09-01 01:01:00,
2013-08-31 20:06:00,78.6,69.2,29.62,North,356,3.0,5.0,73,0.00,,OVC160,0.00,VWS V14.01,2013-09-01 01:06:00,
2013-08-31 20:11:00,78.1,69.1,29.62,NNW,329,7.0,13.0,74,0.00,,OVC160,0.00,VWS V14.01,2013-09-01 01:11:00,
2013-08-31 20:16:00,77.4,68.5,29.64,NW,317,12.0,25.0,74,0.00,,BKN110,0.00,VWS V14.01,2013-09-01 01:16:00,
2013-08-31 20:21:00,76.7,68.6,29.64,West,277,7.0,25.0,76,0.00,,BKN110,0.00,VWS V14.01,2013-09-01 01:21:00,
2013-08-31 20:26:00,76.0,67.9,29.64,WNW,301,3.0,25.0,76,0.00,,BKN110,0.00,VWS V14.01,2013-09-01 01:26:00,
2013-08-31 20:30:00,75.4,67.3,29.66,NNW,331,6.0,25.0,76,0.00,,BKN018,0.00,VWS V15.00,2013-09-01 01:30:00,
2013-08-31 20:31:00,75.4,67.3,29.66,WNW,291,11.0,11.0,76,0.00,,BKN110,0.00,VWS V14.01,2013-09-01 01:31:00,
2013-08-31 20:36:00,74.9,66.4,29.66,NW,312,7.0,12.0,75,0.00,,BKN110,0.00,VWS V14.01,2013-09-01 01:36:00,
2013-08-31 20:41:00,74.6,66.2,29.66,NNW,345,10.0,12.0,75,0.00,,BKN110,0.00,VWS V14.01,2013-09-01 01:41:00,
2013-08-31 20:46:00,74.0,66.3,29.67,NW,326,7.0,12.0,77,0.01,,BKN110,0.01,VWS V14.01,2013-09-01 01:46:00,
2013-08-31 20:51:00,73.3,66.0,29.67,WNW,286,7.0,15.0,78,0.02,,BKN110,0.02,VWS V14.01,2013-09-01 01:51:00,
2013-08-31 20:56:00,72.5,66.0,29.67,WNW,298,0.0,15.0,80,0.04,,BKN110,0.04,VWS V14.01,2013-09-01 01:56:00,
2013-08-31 21:00:00,72.0,65.9,29.66,NW,308,1.0,15.0,81,0.06,,BKN018,0.06,VWS V15.00,2013-09-01 02:00:00,
2013-08-31 21:01:00,72.0,66.2,29.66,NW,308,2.0,3.0,82,0.06,,OVC110,0.06,VWS V14.01,2013-09-01 02:01:00,
2013-08-31 21:06:00,71.6,65.5,29.66,ENE,61,3.0,8.0,81,0.07,,OVC110,0.07,VWS V14.01,2013-09-01 02:06:00,
2013-08-31 21:11:00,71.1,65.7,29.66,ESE,115,13.0,13.0,83,0.08,,OVC110,0.08,VWS V14.01,2013-09-01 02:11:00,
2013-08-31 21:16:00,70.1,65.7,29.60,ESE,106,11.0,14.0,86,0.09,,-RA,0.09,VWS V14.01,2013-09-01 02:16:00,
2013-08-31 21:21:00,69.6,65.2,29.60,ESE,102,8.0,14.0,86,0.10,,-RA,0.10,VWS V14.01,2013-09-01 02:21:00,
2013-08-31 21:26:00,69.3,65.3,29.60,ESE,106,6.0,14.0,87,0.10,,-RA,0.10,VWS V14.01,2013-09-01 02:26:00,
2013-08-31 21:30:00,69.1,65.4,29.58,ESE,110,6.0,14.0,88,0.10,,BKN018,0.10,VWS V15.00,2013-09-01 02:30:00,
2013-08-31 21:31:00,69.1,65.1,29.58,ESE,110,5.0,10.0,87,0.10,,-RA,0.10,VWS V14.01,2013-09-01 02:31:00,
2013-08-31 21:36:00,69.1,65.4,29.58,ESE,106,6.0,10.0,88,0.10,,-RA,0.10,VWS V14.01,2013-09-01 02:36:00,
2013-08-31 21:41:00,69.1,65.7,29.58,ESE,106,2.0,10.0,89,0.10,,-RA,0.10,VWS V14.01,2013-09-01 02:41:00,
2013-08-31 21:46:00,68.9,65.5,29.57,ESE,105,2.0,10.0,89,0.10,,-RA,0.10,VWS V14.01,2013-09-01 02:46:00,
2013-08-31 21:51:00,68.6,65.2,29.57,East,92,2.0,10.0,89,0.10,,-RA,0.10,VWS V14.01,2013-09-01 02:51:00,
2013-08-31 21:56:00,68.4,64.7,29.57,East,94,2.0,10.0,88,0.10,,-RA,0.10,VWS V14.01,2013-09-01 02:56:00,
2013-08-31 22:00:00,68.3,64.6,29.55,East,94,1.0,10.0,88,0.10,,BKN018,0.10,VWS V15.00,2013-09-01 03:00:00,
2013-08-31 22:01:00,68.3,64.6,29.55,East,94,2.0,2.0,88,0.04,,-RA,0.10,VWS V14.01,2013-09-01 03:01:00,
2013-08-31 22:06:00,68.1,64.7,29.55,East,94,3.0,5.0,89,0.04,,-RA,0.10,VWS V14.01,2013-09-01 03:06:00,
2013-08-31 22:11:00,68.1,64.7,29.55,East,94,2.0,6.0,89,0.04,,-RA,0.10,VWS V14.01,2013-09-01 03:11:00,
2013-08-31 22:16:00,68.1,65.1,29.53,East,94,1.0,6.0,90,0.04,,-RA,0.10,VWS V14.01,2013-09-01 03:16:00,
2013-08-31 22:21:00,67.8,65.1,29.53,East,95,1.0,6.0,91,0.04,,-RA,0.10,VWS V14.01,2013-09-01 03:21:00,
2013-08-31 22:26:00,67.8,65.1,29.53,ESE,118,2.0,7.0,91,0.04,,-RA,0.10,VWS V14.01,2013-09-01 03:26:00,
2013-08-31 22:30:00,67.8,64.8,29.52,ESE,118,1.0,7.0,90,0.04,,BKN018,0.10,VWS V15.00,2013-09-01 03:30:00,
2013-08-31 22:31:00,67.8,64.8,29.52,ESE,118,0.0,2.0,90,0.00,,-RA,0.10,VWS V14.01,2013-09-01 03:31:00,
2013-08-31 22:36:00,67.8,64.8,29.52,ESE,118,0.0,2.0,90,0.00,,-RA,0.10,VWS V14.01,2013-09-01 03:36:00,
2013-08-31 22:41:00,67.4,65.0,29.52,NE,40,2.0,8.0,92,0.00,,-RA,0.10,VWS V14.01,2013-09-01 03:41:00,
2013-08-31 22:46:00,67.3,64.9,29.52,NE,48,1.0,10.0,92,0.00,,-RA,0.10,VWS V14.01,2013-09-01 03:46:00,
2013-08-31 22:51:00,67.3,64.9,29.52,NE,50,1.0,10.0,92,0.00,,-RA,0.10,VWS V14.01,2013-09-01 03:51:00,
2013-08-31 22:56:00,67.1,64.7,29.52,NE,50,1.0,10.0,92,0.00,,-RA,0.10,VWS V14.01,2013-09-01 03:56:00,
2013-08-31 23:00:00,66.9,64.8,29.51,NE,50,1.0,10.0,93,0.00,,BKN018,0.10,VWS V15.00,2013-09-01 04:00:00,
2013-08-31 23:01:00,66.9,64.8,29.51,NE,50,1.0,1.0,93,0.00,,OVC160,0.10,VWS V14.01,2013-09-01 04:01:00,
2013-08-31 23:06:00,66.9,64.8,29.51,NE,50,1.0,1.0,93,0.00,,OVC160,0.10,VWS V14.01,2013-09-01 04:06:00,
2013-08-31 23:11:00,66.9,65.1,29.51,NE,50,0.0,2.0,94,0.00,,OVC160,0.10,VWS V14.01,2013-09-01 04:11:00,
2013-08-31 23:16:00,66.8,65.0,29.51,NE,50,0.0,2.0,94,0.00,,OVC160,0.10,VWS V14.01,2013-09-01 04:16:00,
2013-08-31 23:21:00,66.8,65.3,29.51,NE,50,0.0,2.0,95,0.00,,OVC160,0.10,VWS V14.01,2013-09-01 04:21:00,
2013-08-31 23:26:00,66.9,65.4,29.51,NE,50,0.0,2.0,95,0.00,,OVC160,0.10,VWS V14.01,2013-09-01 04:26:00,
2013-08-31 23:30:00,66.9,65.1,29.51,NE,50,0.0,2.0,94,0.00,,BKN018,0.10,VWS V15.00,2013-09-01 04:30:00,
2013-08-31 23:31:00,66.9,65.1,29.51,NE,51,0.0,3.0,94,0.00,,OVC160,0.10,VWS V14.01,2013-09-01 04:31:00,
2013-08-31 23:36:00,67.1,65.3,29.51,NE,51,0.0,3.0,94,0.00,,OVC160,0.10,VWS V14.01,2013-09-01 04:36:00,
2013-08-31 23:41:00,67.1,65.3,29.51,South,191,2.0,8.0,94,0.00,,OVC160,0.10,VWS V14.01,2013-09-01 04:41:00,
2013-08-31 23:46:00,67.1,65.3,29.53,SW,225,6.0,9.0,94,0.00,,OVC160,0.10,VWS V14.01,2013-09-01 04:46:00,
2013-08-31 23:51:00,67.3,65.5,29.53,SE,129,2.0,9.0,94,0.00,,OVC160,0.10,VWS V14.01,2013-09-01 04:51:00,
2013-08-31 23:56:00,67.3,65.5,29.53,SSW,192,2.0,9.0,94,0.00,,OVC160,0.10,VWS V14.01,2013-09-01 04:56:00,